Latest Coastal Weather Observations for Low Head

IDV60701

Issued at 5:55 pm EDT Monday 24 November 2014 (issued every 10 minutes, with the page automatically refreshed every 10 minutes)

About coastal observations | Map of coastal stations | Coastal observations for VIC | Marine services | Other Formats
Station Details ID: 091293 Name: LOW HEAD Lat: -41.05 Lon: 146.79 Height: 3.0 m
Data from the previous 72 hours. | See also: Recent months at Low Head
Date/Time
EDT
Temp

°C
Wind Pressure Rain
since 9am
mm
Weather Cloud Vis
km
Sea
Height
m
Swell
Dir
 
Speed
knots
Gust
knots
hPa Trend Height
m
Period
s
Dir
24/05:30pm 13.3 SSE 4 6 1003.1 - 3.4 - - - - - - -
24/05:00pm 13.4 ENE 8 10 1003.5 - 3.0 - - - - - - -
24/04:30pm 13.4 ENE 10 11 1003.8 - 2.6 - - - - - - -
24/04:00pm 13.9 ENE 11 13 1004.4 - 2.2 - - - - - - -
24/03:30pm 13.9 ENE 11 13 1004.8 - 2.2 - - - - - - -
24/03:00pm 14.1 NE 12 14 1005.0 R 2.2 Fine Cloudy 25 <0.5 0.5 3 -
24/02:30pm 14.2 ENE 10 11 1005.0 - 2.2 - - - - - - -
24/02:00pm 13.9 ENE 9 11 1006.7 - 2.2 - - - - - - -
24/01:30pm 13.9 ENE 10 11 1007.1 - 1.8 - - - - - - -
24/01:00pm 14.3 NE 8 9 1007.9 - 1.4 - - - - - - -
24/12:30pm 14.3 N 6 8 1008.4 - 1.4 - - - - - - -
24/12:00pm 14.4 NE 6 8 1008.2 - 1.2 - - - - - - -
24/11:30am 14.8 ENE 5 6 1008.7 - 1.2 - - - - - - -
24/11:00am 14.6 ESE 3 5 1009.5 - 1.2 - - - - - - -
24/10:30am 14.2 ESE 5 6 1009.5 - 1.2 - - - - - - -
24/10:00am 14.9 SE 4 8 1010.5 - 0.4 - - - - - - -
24/09:30am 14.8 SSE 7 9 1010.1 - 0.0 - - - - - - -
24/09:00am 15.0 S 5 8 1010.4 F 0.2 Fine Cloudy 25 <0.5 0.5 3 NW
24/08:30am 14.8 ESE 2 3 1010.4 - 0.2 - - - - - - -
24/08:00am 14.4 WSW 4 5 1011.0 - 0.0 - - - - - - -
24/07:30am 14.4 SW 3 4 1010.4 - 0.0 - - - - - - -
24/07:00am 14.3 CALM 0 0 1010.2 - 0.0 - - - - - - -
24/06:30am 14.2 W 4 5 1010.2 - 0.0 - - - - - - -
24/06:00am 14.4 W 7 8 1010.5 S 0.0 Fine Mostly cloudy 25 <0.5 0.5 3 NW
24/05:30am 14.4 WSW 8 10 1010.4 - 0.0 - - - - - - -
24/05:00am 14.5 W 11 13 1011.1 - 0.0 - - - - - - -
24/04:30am 14.4 NW 12 16 1011.0 - 0.0 - - - - - - -
24/04:00am 14.7 NW 11 13 1011.2 - 0.0 - - - - - - -
24/03:30am 14.5 WNW 8 9 1011.2 - 0.0 - - - - - - -
24/03:00am 14.2 WNW 7 8 1011.2 - 0.0 - - - - - - -
24/02:30am 14.3 NNW 4 7 1011.4 - 0.0 - - - - - - -
24/02:00am 14.3 WSW 5 6 1010.9 - 0.0 - - - - - - -
24/01:30am 14.8 WSW 6 7 1011.6 - 0.0 - - - - - - -
24/01:00am 15.0 W 8 9 1011.9 - 0.0 - - - - - - -
24/12:30am 15.1 W 9 10 1012.2 - 0.0 - - - - - - -
24/12:00am 15.3 W 11 13 1012.2 - 0.0 - - - - - - -
 
Date/Time
EDT
Temp

°C
Wind Pressure Rain
since 9am
mm
Weather Cloud Vis
km
Sea
Height
m
Swell
Dir
 
Speed
knots
Gust
knots
hPa Trend Height
m
Period
s
Dir
23/11:30pm 15.5 W 12 14 1011.8 - 0.0 - - - - - - -
23/11:00pm 15.8 W 15 17 1011.8 - 0.0 - - - - - - -
23/10:30pm 15.7 W 15 17 1011.9 - 0.0 - - - - - - -
23/10:00pm 16.0 W 19 22 1011.7 - 0.0 - - - - - - -
23/09:30pm 15.9 W 20 24 1011.4 - 0.0 - - - - - - -
23/09:00pm 16.0 WNW 21 26 1011.3 - 0.0 - - - - - - -
23/08:30pm 16.2 WNW 23 27 1011.1 - 0.0 - - - - - - -
23/08:00pm 16.3 WNW 24 28 1010.8 - 0.0 - - - - - - -
23/07:30pm 16.4 WNW 22 26 1010.6 - 0.0 - - - - - - -
23/07:00pm 16.6 NW 22 25 1010.3 - 0.0 - - - - - - -
23/06:30pm 16.7 NW 21 25 1010.2 - 0.0 - - - - - - -
23/06:00pm 17.0 NW 19 23 1010.0 - 0.0 - - - - - - -
23/05:30pm 17.2 NW 19 22 1010.1 - 0.0 - - - - - - -
23/05:00pm 17.1 NW 19 23 1010.2 - 0.0 - - - - - - -
23/04:30pm 17.1 NW 18 22 1010.1 - 0.0 - - - - - - -
23/04:00pm 17.4 NW 17 20 1009.6 - 0.0 - - - - - - -
23/03:30pm 17.9 NW 15 18 1009.6 - 0.0 - - - - - - -
23/03:00pm 17.7 NW 14 16 1009.9 R 0.0 Fine Mostly clear 25 <0.5 0.5 3 NW
23/02:30pm 18.3 WNW 14 17 1009.8 - 0.0 - - - - - - -
23/02:00pm 17.9 WNW 16 18 1010.0 - 0.0 - - - - - - -
23/01:30pm 17.7 NW 16 18 1010.4 - 0.0 - - - - - - -
23/01:00pm 17.5 NW 17 20 1010.4 - 0.0 - - - - - - -
23/12:30pm 16.9 NW 18 21 1010.5 - 0.0 - - - - - - -
23/12:00pm 17.0 NW 20 23 1010.5 - 0.0 - - - - - - -
23/11:30am 16.7 WNW 18 22 1010.4 - 0.0 - - - - - - -
23/11:00am 16.5 NW 18 23 1010.6 - 0.0 - - - - - - -
23/10:30am 16.0 WNW 17 20 1010.4 - 0.0 - - - - - - -
23/10:00am 15.9 WNW 18 21 1009.9 - 0.0 - - - - - - -
23/09:30am 15.4 W 18 20 1009.7 - 0.0 - - - - - - -
23/09:00am 15.0 W 18 21 1009.7 R 1.2 Fine Clear 25 <0.5 0.5 3 NW
23/08:30am 14.9 W 18 21 1009.4 - 1.2 - - - - - - -
23/08:00am 14.9 W 18 21 1009.0 - 1.2 - - - - - - -
23/07:30am 14.6 W 18 21 1008.5 - 1.2 - - - - - - -
23/07:00am 14.5 W 17 21 1007.9 - 1.2 - - - - - - -
23/06:30am 14.6 W 16 19 1007.3 - 1.2 - - - - - - -
23/06:00am 14.4 W 19 22 1006.5 R 1.2 Fine Mostly clear 25 1 0.5 3 -
23/05:30am 14.6 W 20 25 1006.0 - 1.2 - - - - - - -
23/05:00am 14.6 W 17 20 1005.8 - 1.2 - - - - - - -
23/04:30am 14.5 WNW 16 18 1005.5 - 1.2 - - - - - - -
23/04:00am 14.7 W 16 19 1005.5 - 1.2 - - - - - - -
23/03:30am 14.6 W 12 15 1005.3 - 1.2 - - - - - - -
23/03:00am 14.2 W 12 16 1005.3 - 1.0 - - - - - - -
23/02:30am 14.0 SW 4 5 1005.1 - 1.0 - - - - - - -
23/02:00am 14.0 S 5 5 1004.6 - 1.0 - - - - - - -
23/01:30am 14.1 S 5 6 1004.8 - 1.0 - - - - - - -
23/01:00am 14.3 S 6 8 1004.9 - 1.0 - - - - - - -
23/12:30am 14.7 ESE 4 7 1005.0 - 0.8 - - - - - - -
23/12:00am 14.6 SSE 8 9 1004.7 - 0.2 - - - - - - -
 
Date/Time
EDT
Temp

°C
Wind Pressure Rain
since 9am
mm
Weather Cloud Vis
km
Sea
Height
m
Swell
Dir
 
Speed
knots
Gust
knots
hPa Trend Height
m
Period
s
Dir
22/11:30pm 14.7 SSE 7 9 1005.0 - 0.0 - - - - - - -
22/11:00pm 15.1 ESE 5 8 1005.9 - 0.0 - - - - - - -
22/10:30pm 14.8 SSE 5 6 1006.1 - 0.0 - - - - - - -
22/10:00pm 15.2 ENE 6 7 1006.2 - 0.0 - - - - - - -
22/09:30pm 15.0 SE 6 7 1006.0 - 0.0 - - - - - - -
22/09:00pm 15.2 E 5 6 1005.8 - 0.0 - - - - - - -
22/08:30pm 15.8 E 4 6 1006.0 - 0.0 - - - - - - -
22/08:00pm 16.0 ENE 9 9 1005.8 - 0.0 - - - - - - -
22/07:30pm 15.9 ENE 10 11 1005.9 - 0.0 - - - - - - -
22/07:00pm 16.1 ENE 10 11 1006.1 - 0.0 - - - - - - -
22/06:30pm 16.0 NE 9 11 1006.6 - 0.0 - - - - - - -
22/06:00pm 16.3 ENE 11 11 1006.5 - 0.0 - - - - - - -
22/05:30pm 16.6 ENE 10 12 1006.3 - 0.0 - - - - - - -
22/05:00pm 16.3 ENE 12 14 1006.6 - 0.0 - - - - - - -
22/04:30pm 16.3 ENE 12 14 1006.9 - 0.0 - - - - - - -
22/04:00pm 15.6 ENE 9 11 1007.6 - 0.0 - - - - - - -
22/03:30pm 15.7 ENE 9 10 1008.1 - 0.0 - - - - - - -
22/03:00pm 16.3 NE 7 9 1008.6 F 0.0 Fine Cloudy 20 <0.5 0.5 3 -
22/02:30pm 15.7 NE 10 11 1008.3 - 0.0 - - - - - - -
22/02:00pm 15.3 ENE 10 12 1008.7 - 0.0 - - - - - - -
22/01:30pm 15.3 NE 10 11 1009.6 - 0.0 - - - - - - -
22/01:00pm 15.3 NE 13 14 1009.3 - 0.0 - - - - - - -
22/12:30pm 15.5 ENE 13 14 1009.4 - 0.0 - - - - - - -
22/12:00pm 15.5 ENE 11 13 1009.9 - 0.0 - - - - - - -
22/11:30am 15.4 ENE 12 13 1010.2 - 0.0 - - - - - - -
22/11:00am 14.6 ENE 11 12 1010.6 - 0.0 - - - - - - -
22/10:30am 14.7 NE 11 12 1010.9 - 0.0 - - - - - - -
22/10:00am 14.2 NE 11 12 1010.9 - 0.0 - - - - - - -
22/09:30am 14.4 NE 9 10 1011.1 - 0.0 - - - - - - -
22/09:00am 14.8 NNE 6 7 1011.1 F 0.0 Fine Mostly cloudy 25 <0.5 0.5 3 -
22/08:30am 14.6 N 6 7 1011.2 - 0.0 - - - - - - -
22/08:00am 14.5 NNW 7 10 1011.4 - 0.0 - - - - - - -
22/07:30am 14.1 N 9 11 1011.2 - 0.0 - - - - - - -
22/07:00am 13.6 N 7 8 1011.4 - 0.0 - - - - - - -
22/06:30am 11.2 E 6 7 1011.1 - 0.0 - - - - - - -
22/06:00am 10.9 E 6 7 1010.6 R 0.0 Fine Mostly cloudy 25 <0.5 0.5 3 -
22/05:30am 12.8 NNW 6 8 1010.3 - 0.0 - - - - - - -
22/05:00am 12.8 NW 9 11 1010.1 - 0.0 - - - - - - -
22/04:30am 11.9 N 4 9 1009.9 - 0.0 - - - - - - -
22/04:00am 11.1 ENE 3 4 1009.6 - 0.0 - - - - - - -
22/03:30am 11.4 N 1 4 1009.6 - 0.0 - - - - - - -
22/03:00am 12.5 WNW 5 6 1009.3 - 0.0 - - - - - - -
22/02:30am 12.8 W 7 7 1009.7 - 0.0 - - - - - - -
22/02:00am 13.3 W 10 11 1010.3 - 0.0 - - - - - - -
22/01:30am 13.4 W 14 17 1011.0 - 0.0 - - - - - - -
22/01:00am 13.5 W 18 21 1011.3 - 0.0 - - - - - - -
22/12:30am 13.7 W 17 21 1011.1 - 0.0 - - - - - - -
22/12:00am 14.0 W 15 17 1011.3 - 0.0 - - - - - - -
 
Date/Time
EDT
Temp

°C
Wind Pressure Rain
since 9am
mm
Weather Cloud Vis
km
Sea
Height
m
Swell
Dir
 
Speed
knots
Gust
knots
hPa Trend Height
m
Period
s
Dir
21/11:30pm 14.1 W 16 19 1011.3 - 0.0 - - - - - - -
21/11:00pm 14.3 W 18 20 1011.1 - 0.0 - - - - - - -
21/10:30pm 14.3 W 19 22 1011.2 - 0.0 - - - - - - -
21/10:00pm 14.2 WNW 20 24 1011.2 - 0.0 - - - - - - -
21/09:30pm 14.4 WNW 19 23 1010.8 - 0.0 - - - - - - -
21/09:00pm 14.4 WNW 22 26 1010.4 - 0.0 - - - - - - -
21/08:30pm 14.5 WNW 21 25 1010.3 - 0.0 - - - - - - -
21/08:00pm 14.7 WNW 23 27 1009.7 - 0.0 - - - - - - -
21/07:30pm 15.0 NW 22 26 1009.4 - 0.0 - - - - - - -
21/07:00pm 15.3 NW 22 25 1008.8 - 0.0 - - - - - - -
21/06:30pm 15.6 NW 21 24 1008.3 - 0.0 - - - - - - -
21/06:00pm 15.8 WNW 22 27 1008.2 - 0.0 - - - - - - -

Other Formats:

Comma delimited format used in spreadsheet applications
http://www.bom.gov.au/fwo/IDV60701/IDV60701.95964.axf

JavaScript Object Notation format (JSON) in row-major order
http://www.bom.gov.au/fwo/IDV60701/IDV60701.95964.json